Regional Weather Roundup
Issued by NWS

Home | Current Version | Previous Version | Graphics & Text | Print | Product List | Glossary On
Versions: 1 2 3 4 5 6 7 8 9 10 11 12 13 14 15 16 17 18 19 20 21 22 23 24 25 26 27 28 29 30 31 32 33 34 35 36 37 38 39 40 41 42 43 44 45 46 47 48 49 50
000
ASUS43 KLOT 101603
RWRIL

ILLINOIS REGIONAL WEATHER ROUNDUP
NATIONAL WEATHER SERVICE CHICAGO/ROMEOVILLE IL
1000 AM CST WED FEB 10 2016

NOTE: "FAIR" INDICATES FEW OR NO CLOUDS BELOW 12,000 FEET WITH NO
SIGNIFICANT WEATHER AND/OR OBSTRUCTIONS TO VISIBILITY.

* THESE STATIONS ARE NOT UNDER NWS QUALITY CONTROL. THEY ALSO MAY NOT
  REPORT WEATHER SUCH AS PRECIPITATION OR FOG.

ILZ001-002-007-009-015-016-024-101700-
NORTHWEST ILLINOIS

CITY           SKY/WX    TMP DP  RH WIND       PRES   REMARKS
MOLINE         MOSUNNY   13   0  56 W9        30.12S WCI   1
STERLING*      SUNNY     14   1  57 NW14      30.07R WCI  -1
$$

ILZ003-004-008-010-011-017-018-101700-
NORTH CENTRAL ILLINOIS

CITY           SKY/WX    TMP DP  RH WIND       PRES   REMARKS
ROCKFORD       MOSUNNY   12   0  58 NW14      30.08S WCI  -3
FREEPORT*      SUNNY     10   0  64 N9        30.09R WCI  -4
ROCHELLE*      SUNNY     11   2  64 NW14      30.07S WCI  -4
DE KALB*       MOSUNNY   11   2  67 NW10      30.04S WCI  -2
$$

ILZ005-006-012>014-019>023-101700-
NORTHEAST ILLINOIS

CITY           SKY/WX    TMP DP  RH WIND       PRES   REMARKS
CHICAGO-OHARE  PTSUNNY   13   2  61 NW10      30.03S WCI   0
CHICAGO-MIDWAY MOSUNNY   15   1  53 NW13      30.04S WCI   1
AURORA         MOSUNNY   13   3  64 NW14      30.06S WCI  -2
LANSING*       PTSUNNY   15   2  58 NW12      30.05R WCI   1
WAUKEGAN       CLOUDY    13   1  59 NW12      30.02R WCI  -1
DUPAGE AIRPORT CLOUDY    11   1  64 W13       30.04R WCI  -4
WHEELING       PTSUNNY   13   1  59 NW14      30.04S WCI  -2
MORRIS*        MOSUNNY   13   2  61 NW9G18    30.04S WCI   1
NORTHERLY ISL    N/A     15   2  56 W14         N/A  WCI   1
$$

LMZ740>746-101700-
SOUTHERN LAKE MICHIGAN

STATION/POSITION SKY/WX   TEMP    WIND        PRES    VSBY  WAVE
                          AIR SEA DIR/SP/G                  HT/PER
                          (F)     (DEG/KT/KT) (MB)    (MI)  (FT/S)
HARRISON CRIB              14     320/ 17/ 23   N/A
BURNHAM HARBOR             15     290/ 11/ 14   N/A
CALUMET HARBOR             13     290/ 11/ 15 1016.4R
BURNS HARBOR               16     310/ 21     1016.3R
MICHIGAN CITY              17     280/ 19/ 23   N/A
$$

ILZ025>027-034>036-040-047-049-050-058-095>099-101700-
WEST-CENTRAL ILLINOIS

CITY           SKY/WX    TMP DP  RH WIND       PRES   REMARKS
QUINCY         CLOUDY    16   4  59 W7        30.14S WCI   6
MACOMB*        MOSUNNY   14   6  70 NW9       30.16S WCI   2
$$

ILZ028>032-037-038-041>044-048-051>054-059>061-101700-
CENTRAL ILLINOIS

CITY           SKY/WX    TMP DP  RH WIND       PRES   REMARKS
BLOOMINGTON    SUNNY     13   2  61 NW12      30.09F WCI  -1
DECATUR        MOSUNNY   15   4  61 NW10      30.12S WCI   2
PEORIA         SUNNY     14   1  56 W10       30.11F WCI   1
LINCOLN*       CLOUDY    16   5  63 W8        30.12F WCI   5
SPRINGFIELD    PTSUNNY   16   6  65 W7        30.15S WCI   6
TAYLORVILLE    NOT AVBL
$$

ILZ033-039-045-046-055>057-062-063-101700-
EAST-CENTRAL ILLINOIS

CITY           SKY/WX    TMP DP  RH WIND       PRES   REMARKS
CHAMPAIGN      SUNNY     14   5  67 W14       30.10R WCI  -1
MATTOON        SUNNY     13   4  67 NW14      30.12R WCI  -2
$$

ILZ079-100>102-101700-
SOUTHWEST ILLINOIS

CITY           SKY/WX    TMP DP  RH WIND       PRES   REMARKS
BELLEVILLE     CLOUDY    21   9  59 W8        30.18S WCI  11
CAHOKIA*       CLOUDY    21   5  50 NW8       30.20S WCI  11
SPARTA*        MOSUNNY   19   9  65 NW5       30.21S WCI  12
$$

ILZ064>066-069>071-074>076-080>082-084>086-088>090-092>094-101700-
SOUTH-CENTRAL ILLINOIS

CITY           SKY/WX    TMP DP  RH WIND       PRES   REMARKS
CARBONDALE     SUNNY     20   8  60 W9        30.22S WCI   9
MARION         MOSUNNY   21   9  58 W12G21    30.23R WCI   9
MT. VERNON     MOSUNNY   19   7  58 W5        30.19S WCI  13
CENTRALIA*     MOSUNNY   19   9  63 W10       30.18R WCI   8
SALEM*         CLOUDY    19   5  55 NW12      30.18R WCI   6
$$

ILZ067-068-072-073-078-083-087-091-101700-
SOUTHEAST ILLINOIS

CITY           SKY/WX    TMP DP  RH WIND       PRES   REMARKS
LAWRENCEVILLE  SUNNY     16   5  62 W15       30.18R WCI   1
HARRISBURG*    SUNNY     20  10  63 W10       30.22F WCI   9
$$

ABBREVIATIONS USED IN REMARKS
   TC - TEMPERATURE IN CELSIUS
  WCI - WIND CHILL INDEX
   HX - HEAT INDEX
  VSB - VISIBILITY
$$




USA.gov is the U.S. government's official web portal to all federal, state and local government web resources and services.